Location: Choisy
(48.7685°N, 2.4187°E)
Time: 10:47:45
(UTC+00:00)

ATLAS 3B R/B - Pass Details

Date: 03 December 2023
Orbit: 947 x 1247 km, 63.8° (Epoch: 10 February)

Event Time Altitude Azimuth Distance (km) Brightness Sun altitude
Exits shadow 06:27:26 - 274° (W) 3,124 4.5 -9.0°
Reaches altitude 10° 06:27:48 10° 276° (W) 3,016 4.5 -9.0°
Maximum altitude 06:34:13 33° 338° (NNW) 1,897 3.7 -8.0°
Drops below altitude 10° 06:41:00 10° 40° (NE) 3,187 5.4 -7.0°
Sets 06:44:13 0° 50° (NE) 4,178 6.1 -6.5°
